Weather History for KCDW - October, 2014

Change the Weather History Date:

Saturday, October 25, 2014

  Actual Average Record
Temperature  
Mean Temperature 54 °F -  
Max Temperature 68 °F 61 °F 77 °F (1963)
Min Temperature 41 °F 39 °F 22 °F (1982)
Degree Days  
Heating Degree Days 12    
Growing Degree Days 4 (Base 50)    
Moisture  
Dew Point 39 °F    
Average Humidity 54    
Maximum Humidity 82    
Minimum Humidity 37    
Precipitation  
Precipitation 0.00 in - - ()
Sea Level Pressure  
Sea Level Pressure 29.78 in    
Wind  
Wind Speed 3 mph (WSW)    
Max Wind Speed 13 mph    
Max Gust Speed 20 mph    
Visibility 10 miles    
Events      
Averages and records for this station are not official NWS values.
T = Trace of Precipitation, MM = Missing Value Source: NWS Daily Summary

Daily Weather History Graph

Daily Weather History Graph

Search for Another Location

Airport or City:

Trip Planner

Search our weather history database for the weather conditions in past years. The results will help you decide how hot, cold, wet, or windy it might be!

Date:

Astronomy

Oct. 25, 2014 Rise Set
Actual Time 7:19 AM EDT 6:02 PM EDT
Civil Twilight 6:51 AM EDT 6:30 PM EDT
Nautical Twilight 6:19 AM EDT 7:02 PM EDT
Astronomical Twilight 5:47 AM EDT 7:34 PM EDT
Moon 8:56 AM EDT (10/25) 7:22 PM EDT (10/25)
Length of Visible Light 11h 38m
Length of Day
10h 42m
Waxing Crescent, 3% of the Moon is Illuminated
Oct 25
Waxing Crescent
Oct 30
First Quarter
Nov 6
Full
Nov 14
Last Quarter
Nov 22
New

Hourly Weather History & Observations

Time (EDT) Temp. Dew Point Humidity Pressure Visibility Wind Dir Wind Speed Gust Speed Precip Events Conditions
12:53 AM 53.1 °F 35.1 °F 50% 29.88 in 10.0 mi Calm Calm - N/A   Clear
1:53 AM 52.0 °F 36.0 °F 54% 29.90 in 10.0 mi WNW 4.6 mph - N/A   Clear
2:53 AM 46.9 °F 37.0 °F 68% 29.90 in 10.0 mi Calm Calm - N/A   Clear
3:53 AM 46.9 °F 37.9 °F 71% 29.89 in 10.0 mi Calm Calm - N/A   Clear
4:53 AM 46.9 °F 36.0 °F 66% 29.90 in 10.0 mi Calm Calm - N/A   Clear
5:53 AM 43.0 °F 37.0 °F 80% 29.90 in 10.0 mi Calm Calm - N/A   Clear
6:53 AM 41.0 °F 36.0 °F 82% 29.89 in 10.0 mi Calm Calm - N/A   Clear
7:53 AM 42.1 °F 36.0 °F 79% 29.90 in 10.0 mi Calm Calm - N/A   Clear
8:53 AM 50.0 °F 36.0 °F 59% 29.89 in 10.0 mi Calm Calm - N/A   Clear
9:53 AM 54.0 °F 37.0 °F 53% 29.88 in 10.0 mi Variable 4.6 mph - N/A   Clear
10:53 AM 59.0 °F 39.0 °F 48% 29.87 in 10.0 mi WSW 5.8 mph - N/A   Clear
11:53 AM 62.1 °F 39.9 °F 44% 29.83 in 10.0 mi WSW 8.1 mph - N/A   Clear
12:53 PM 64.0 °F 39.0 °F 40% 29.79 in 10.0 mi Variable 5.8 mph 16.1 mph N/A   Clear
1:53 PM 64.9 °F 39.0 °F 39% 29.75 in 10.0 mi NW 9.2 mph - N/A   Clear
2:53 PM 66.9 °F 39.9 °F 37% 29.72 in 10.0 mi West 8.1 mph 18.4 mph N/A   Clear
3:53 PM 66.9 °F 41.0 °F 39% 29.70 in 10.0 mi WNW 12.7 mph 19.6 mph N/A   Clear
4:53 PM 66.9 °F 42.1 °F 40% 29.68 in 10.0 mi SW 9.2 mph - N/A   Clear
5:53 PM 64.9 °F 42.1 °F 43% 29.66 in 10.0 mi SW 3.5 mph - N/A   Clear
6:53 PM 63.0 °F 42.1 °F 46% 29.66 in 10.0 mi SW 5.8 mph - N/A   Overcast
7:53 PM 62.1 °F 42.1 °F 48% 29.65 in 10.0 mi SW 4.6 mph - N/A   Mostly Cloudy
8:53 PM 61.0 °F 42.1 °F 50% 29.64 in 10.0 mi Variable 3.5 mph - N/A   Clear
9:53 PM 61.0 °F 42.1 °F 50% 29.63 in 10.0 mi WSW 5.8 mph - N/A   Clear
10:53 PM 60.1 °F 43.0 °F 53% 29.61 in 10.0 mi WSW 5.8 mph - N/A   Scattered Clouds
11:53 PM 60.1 °F 43.0 °F 53% 29.59 in 10.0 mi Variable 4.6 mph - N/A   Mostly Cloudy